Location: Felsheim
(48.7267°N, 10.7386°E)
Time: 23:22:34
(UTC+00:00)

Cosmos 1892 - Pass Details

Date: 09 April 2020
Orbit: 503 x 525 km, 82.5° (Epoch: 23 May)

Event Time Altitude Azimuth Distance (km) Brightness Sun altitude
Rises 19:55:57 0° 352° (N) 2,674 7.0 -18.1°
Reaches altitude 10° 19:58:07 10° 356° (N) 1,780 6.0 -18.4°
Maximum altitude 20:02:00 65° 79° (ENE) 582 2.7 -18.9°
Enters shadow 20:02:44 52° 132° (SE) 659 2.8 -19.0°
